#datint,netname,site,siteID,timestamp,IntT,BattV,AirT2,AirT,AirT_Avg,AirT_Max,AirT_Min,RH_Avg,RH_Max,RH_Min,EA_Avg,Td_Avg,Td_Max,Td_Min,WindS_Smp,WindS_Avg,WindD_Avg,WindD_SD,WindS_Max,ETo,ETr,SoilT4,SoilT8,SoilVWC8,SolarW_Avg,wetstate_Avg,wetT_Avg,Precip_accum,Precip_WPG,Precip_TB
15min,AgWx,beryljct,423,03MAR2019:00:00:00,40.2,12.86,40.0,39.3,39.0,39.4,38.8,88,89,87,0.709,35.8,35.9,35.5,5.283,3.9,112,27,5.6,-0.00010,-0.00011,.,37.3,25,0,0,39.0,11.33,0.00,0.00
15min,AgWx,beryljct,423,03MAR2019:00:15:00,40.1,12.85,40.5,40.5,39.8,40.5,39.1,86,88,84,0.714,36.0,36.6,35.6,3.398,5.6,126,14,8.0,-0.00005,-0.00005,.,37.3,25,0,0,39.6,11.32,0.00,0.00
15min,AgWx,beryljct,423,03MAR2019:00:30:00,39.8,12.86,39.0,39.0,39.3,40.5,38.2,85,88,82,0.695,35.2,35.9,34.2,4.099,3.9,127,9.7,5.6,-0.00008,-0.00009,.,37.4,25,0,0,38.0,11.32,0.00,0.00
15min,AgWx,beryljct,423,03MAR2019:00:45:00,39.6,12.85,41.0,40.3,39.7,40.4,39.0,85,86,84,0.709,35.5,36.0,35.1,3.88,4.3,135,12,7.1,-0.00007,-0.00008,.,37.4,25,0,0,38.4,11.32,0.00,0.00
15min,AgWx,beryljct,423,03MAR2019:01:00:00,39.6,12.85,37.5,38.4,39.8,40.5,38.4,84,87,83,0.668,35.4,36.2,34.2,4.713,3.2,157,56,5.3,-0.00010,-0.00012,.,37.4,25,0,0,39.3,11.33,0.00,0.00
15min,AgWx,beryljct,423,03MAR2019:01:15:00,39.4,12.84,36.4,36.2,36.6,38.2,36.0,90,92,85,0.666,33.9,34.2,33.6,1.951,3.3,319,14,5.7,-0.00011,-0.00013,.,37.4,25,0,0,37.2,11.33,0.00,0.00
15min,AgWx,beryljct,423,03MAR2019:01:30:00,38.8,12.85,38.0,37.2,36.4,37.2,36.1,93,93,92,0.701,34.5,35.5,34.1,2.674,1.3,246,32,2.7,-0.00019,-0.00025,.,37.4,25,0,0,36.5,11.32,0.00,0.00
15min,AgWx,beryljct,423,03MAR2019:01:45:00,38.5,12.84,34.0,34.3,36.2,37.4,34.3,92,93,91,0.612,34.1,35.5,32.1,5.722,3.9,348,35,7.9,-0.00011,-0.00012,.,37.4,25,0,0,37.1,11.32,0.00,0.00
15min,AgWx,beryljct,423,03MAR2019:02:00:00,38.0,12.83,32.9,32.6,33.1,34.2,32.6,93,94,91,0.587,31.3,32.0,31.0,2.236,4.4,353,12,7.0,-0.00009,-0.00011,.,37.4,25,0,0,35.4,11.33,0.01,0.00
15min,AgWx,beryljct,423,03MAR2019:02:15:00,37.2,12.82,32.6,32.4,32.5,32.7,32.4,94,95,94,0.587,31.1,31.2,31.0,3.639,3.1,329,14,5.2,-0.00012,-0.00015,.,37.4,25,0,0,35.5,11.33,0.00,0.00
15min,AgWx,beryljct,423,03MAR2019:02:30:00,36.4,12.81,32.5,32.1,32.2,32.4,32.1,95,95,95,0.584,31.0,31.1,30.9,2.916,2.4,325,5.6,3.5,-0.00014,-0.00018,.,37.4,25,0,0,35.4,11.33,0.00,0.00
15min,AgWx,beryljct,423,03MAR2019:02:45:00,35.7,12.81,32.5,32.0,32.1,32.2,32.0,95,96,95,0.584,30.9,31.0,30.8,0,0.9,306,0.6,3.1,-0.00019,-0.00026,.,37.4,25,0,0,35.5,11.33,0.00,0.00
15min,AgWx,beryljct,423,03MAR2019:03:00:00,35.3,12.82,32.8,32.3,32.2,32.4,32.0,96,96,95,0.592,31.1,31.3,30.8,0,0.5,231,34,2.1,-0.00021,-0.00031,.,37.4,25,0,0,35.6,11.33,0.00,0.00
15min,AgWx,beryljct,423,03MAR2019:03:15:00,35.2,12.81,33.3,32.8,32.5,32.8,32.3,96,96,96,0.604,31.4,31.8,31.2,3.157,1.3,199,13,3.7,-0.00018,-0.00024,.,37.4,25,0,0,35.6,11.32,0.00,0.00
15min,AgWx,beryljct,423,03MAR2019:03:30:00,35.3,12.8,33.7,33.1,33.0,33.2,32.8,96,96,96,0.611,31.9,32.1,31.7,2.214,3.0,158,14,4.1,-0.00013,-0.00016,.,37.4,25,0,0,35.7,11.32,0.00,0.00
15min,AgWx,beryljct,423,03MAR2019:03:45:00,35.2,12.79,32.8,32.6,33.1,33.5,32.6,96,96,95,0.595,31.9,32.4,31.3,3.683,2.6,111,64,4.8,-0.00014,-0.00017,.,37.4,25,0,0,35.2,11.33,0.00,0.00
15min,AgWx,beryljct,423,03MAR2019:04:00:00,34.7,12.79,32.3,31.9,32.1,32.6,31.8,95,96,95,0.581,30.9,31.3,30.6,0.57,1.4,322,12,4.7,-0.00017,-0.00023,.,37.4,25,0,0,35.5,11.32,0.00,0.00
15min,AgWx,beryljct,423,03MAR2019:04:15:00,34.2,12.79,32.2,31.8,31.9,32.0,31.8,96,96,96,0.582,30.8,30.9,30.7,3.902,2.3,315,8.4,4.1,-0.00014,-0.00018,.,37.4,25,0,0,35.8,11.33,0.00,0.00
15min,AgWx,beryljct,423,03MAR2019:04:30:00,34.1,12.79,31.7,31.2,31.5,31.8,31.1,96,97,96,0.570,30.5,30.8,30.2,4.253,5.0,319,6.9,6.8,-0.00009,-0.00011,.,37.4,25,0,0,35.4,11.33,0.00,0.00
15min,AgWx,beryljct,423,03MAR2019:04:45:00,33.9,12.77,31.3,30.9,31.1,31.3,30.9,97,97,96,0.565,30.3,30.4,30.1,3.99,4.9,303,6.5,6.1,-0.00010,-0.00011,.,37.4,25,0,0,35.4,11.33,0.00,0.00
15min,AgWx,beryljct,423,03MAR2019:05:00:00,33.7,12.77,31.4,30.8,30.8,30.9,30.7,97,97,97,0.565,30.0,30.2,29.9,2.718,3.4,316,16,4.6,-0.00012,-0.00014,.,37.4,25,0,0,35.7,11.33,0.00,0.00
15min,AgWx,beryljct,423,03MAR2019:05:15:00,33.5,12.78,30.7,30.3,30.6,30.9,30.3,97,97,97,0.555,29.9,30.2,29.6,2.828,3.0,332,3.9,4.6,-0.00013,-0.00016,.,37.3,25,0,0,35.4,11.33,0.00,0.00
15min,AgWx,beryljct,423,03MAR2019:05:30:00,33.2,12.78,30.5,30.0,30.2,30.3,30.0,98,98,97,0.550,29.5,29.7,29.4,0,1.5,347,2.3,3.5,-0.00016,-0.00022,.,37.3,25,0,0,35.6,11.33,0.00,0.00
15min,AgWx,beryljct,423,03MAR2019:05:45:00,33.1,12.77,31.0,30.5,30.2,30.5,30.0,98,98,97,0.562,29.6,29.9,29.4,0.482,0.5,25,58,2.7,-0.00020,-0.00030,.,37.3,25,0,0,35.8,11.33,0.00,0.00
15min,AgWx,beryljct,423,03MAR2019:06:00:00,33.3,12.77,31.2,31.0,30.7,31.1,30.5,98,98,98,0.573,30.2,30.5,29.8,4.801,2.5,87,44,5.4,-0.00014,-0.00018,.,37.3,25,0,0,35.4,11.33,0.00,0.00
15min,AgWx,beryljct,423,03MAR2019:06:15:00,33.6,12.65,31.7,31.2,31.2,31.3,31.0,98,98,98,0.577,30.6,30.7,30.4,1.71,2.5,110,42,4.9,-0.00014,-0.00018,.,37.3,25,0,0,35.7,11.33,0.00,0.00
15min,AgWx,beryljct,423,03MAR2019:06:30:00,33.5,12.76,31.4,31.0,31.2,31.3,31.0,98,98,98,0.574,30.6,30.8,30.4,1.14,2.2,102,14,3.6,0.00001,0.00002,.,37.2,25,0,0,35.6,11.32,0.00,0.00
15min,AgWx,beryljct,423,03MAR2019:06:45:00,32.8,12.76,31.5,31.0,31.0,31.0,30.9,98,98,98,0.573,30.4,30.5,30.4,0,0.2,107,0.0,1.2,0.00001,0.00001,.,37.2,25,0,0,35.5,11.33,0.01,0.00
15min,AgWx,beryljct,423,03MAR2019:07:00:00,32.3,12.76,30.5,29.9,30.6,31.0,29.9,98,98,98,0.549,30.0,30.5,29.4,4.867,3.5,94,18,5.2,0.00002,0.00003,.,37.2,25,1,0,35.3,11.33,0.00,0.00
15min,AgWx,beryljct,423,03MAR2019:07:15:00,32.0,12.77,31.2,30.5,30.1,30.5,29.8,98,98,98,0.562,29.5,29.9,29.2,0,2.5,347,51,4.9,0.00004,0.00005,.,37.2,25,7,0,35.8,11.33,0.00,0.00
15min,AgWx,beryljct,423,03MAR2019:07:30:00,31.8,12.77,30.6,29.9,30.5,30.6,29.7,98,98,98,0.548,29.9,30.1,29.2,4.362,1.8,99,47,5.2,0.00006,0.00007,.,37.1,25,13,0,35.6,11.33,0.00,0.00
15min,AgWx,beryljct,423,03MAR2019:07:45:00,31.6,12.91,30.5,29.8,29.8,29.9,29.6,98,98,98,0.546,29.2,29.4,29.1,1.995,2.4,96,49,4.2,0.00017,0.00018,.,37.1,25,43,0,36.3,11.33,0.00,0.00
15min,AgWx,beryljct,423,03MAR2019:08:00:00,32.2,13.15,31.7,30.9,30.6,30.9,29.8,98,98,98,0.572,30.0,30.4,29.2,0.351,1.0,347,14,2.5,0.00048,0.00052,.,37.1,25,146,0,45.0,11.32,0.00,0.00
15min,AgWx,beryljct,423,03MAR2019:08:15:00,33.8,13.66,33.2,32.8,31.8,32.8,31.0,98,98,98,0.617,31.3,32.3,30.4,1.25,1.8,341,7.9,3.6,0.00077,0.00082,.,37.1,25,244,0,51.4,11.33,0.00,0.00
15min,AgWx,beryljct,423,03MAR2019:08:30:00,35.5,14.71,33.6,33.6,33.3,33.8,32.8,98,98,98,0.636,32.7,33.2,32.2,4.406,2.9,338,13,5.4,0.00071,0.00076,.,37.0,25,210,0,49.1,11.32,0.00,0.00
15min,AgWx,beryljct,423,03MAR2019:08:45:00,37.3,14.66,36.4,35.4,34.2,35.4,33.4,98,98,98,0.684,33.7,34.9,32.8,2.411,3.1,318,13,4.4,0.00104,0.00111,.,37.0,26,314,0,54.0,11.32,0.00,0.00
15min,AgWx,beryljct,423,03MAR2019:09:00:00,39.4,14.68,36.8,36.6,36.0,36.6,35.5,98,98,98,0.718,35.4,36.1,34.9,2.872,2.9,9.9,17,4.1,0.00121,0.00130,.,37.0,27,344,0,56.5,11.32,0.00,0.00
15min,AgWx,beryljct,423,03MAR2019:09:15:00,41.4,14.65,38.6,38.6,37.5,38.6,36.6,98,98,98,0.775,36.9,38.0,36.1,2.718,2.5,23,13,3.6,0.00151,0.00161,.,36.9,26,408,0,59.9,11.32,0.00,0.00
15min,AgWx,beryljct,423,03MAR2019:09:30:00,44.4,14.54,41.9,40.6,39.5,40.8,38.5,98,98,98,0.838,38.9,40.2,37.9,2.214,1.9,357,15,4.0,0.00211,0.00225,.,36.9,25,541,0,69.6,11.32,0.00,0.00
15min,AgWx,beryljct,423,03MAR2019:09:45:00,47.1,14.49,42.7,42.1,41.1,42.3,40.5,97,98,97,0.883,40.5,41.6,39.8,0.373,2.8,348,30,4.5,0.00200,0.00213,.,36.9,25,498,0,66.6,11.32,0.00,0.00
15min,AgWx,beryljct,423,03MAR2019:10:00:00,48.8,14.53,46.4,45.8,44.0,45.9,41.7,93,97,82,0.866,41.9,43.3,40.6,6.007,5.1,183,48,11.1,0.00112,0.00124,.,36.9,25,252,0,62.5,11.32,0.00,0.00
15min,AgWx,beryljct,423,03MAR2019:10:15:00,49.6,14.48,48.6,47.9,47.3,48.1,45.9,77,83,73,0.864,40.4,41.3,39.3,10.63,10.1,204,12,14.6,0.00245,0.00288,.,36.8,25,589,0,63.6,11.32,0.00,0.00
15min,AgWx,beryljct,423,03MAR2019:10:30:00,50.7,14.42,49.4,48.5,48.1,48.8,47.5,76,78,73,0.880,40.8,42.1,39.6,11,9.8,200,11,13.5,0.00257,0.00301,.,36.8,25,599,0,65.2,11.32,0.00,0.00
15min,AgWx,beryljct,423,03MAR2019:10:45:00,51.3,14.42,48.9,49.0,48.4,49.1,47.7,73,77,67,0.845,40.1,41.4,38.5,15.13,11.4,204,11,18.2,0.00270,0.00322,.,36.8,26,628,0,64.5,11.32,0.00,0.00
15min,AgWx,beryljct,423,03MAR2019:11:00:00,51.7,14.42,50.3,49.5,49.0,49.8,48.2,69,71,67,0.850,39.3,40.6,38.3,13.24,14.5,209,11,19.3,0.00287,0.00353,.,36.8,25,670,0,62.7,11.32,0.00,0.00
15min,AgWx,beryljct,423,03MAR2019:11:15:00,52.1,14.42,48.8,48.1,48.9,49.7,48.0,70,74,67,0.812,39.6,41.5,38.5,15.08,14.1,214,11,18.2,0.00231,0.00292,.,36.8,25,487,0,59.8,11.31,0.00,0.00
15min,AgWx,beryljct,423,03MAR2019:11:30:00,52.3,14.02,49.2,49.3,49.1,49.7,48.2,70,72,68,0.824,39.9,41.2,38.7,17.45,15.7,209,8.9,20.5,0.00323,0.00391,.,36.8,25,787,0,63.9,11.31,0.00,0.00
15min,AgWx,beryljct,423,03MAR2019:11:45:00,52.5,14.02,48.6,48.5,48.5,49.3,47.6,70,73,68,0.816,39.3,40.4,38.6,13.94,16.4,213,7.6,21.0,0.00248,0.00313,.,36.8,25,560,0,60.3,11.32,0.01,0.00
15min,AgWx,beryljct,423,03MAR2019:12:00:00,52.2,13.99,49.6,49.5,49.0,49.8,48.4,70,72,67,0.831,39.5,41.0,38.5,17.49,17.1,212,10,23.1,0.00276,0.00346,.,36.9,25,655,0,59.7,11.31,0.00,0.00
15min,AgWx,beryljct,423,03MAR2019:12:15:00,52.6,14.03,50.1,49.7,49.2,49.7,48.8,69,72,66,0.857,39.4,40.8,38.5,17.16,17.2,206,9.7,20.7,0.00351,0.00426,.,36.9,25,875,0,64.2,11.31,0.00,0.00
15min,AgWx,beryljct,423,03MAR2019:12:30:00,53.3,14.02,49.4,49.5,49.9,50.5,49.4,68,71,66,0.801,39.9,41.6,38.6,17.93,18.0,202,9.2,23.0,0.00375,0.00455,.,37.0,25,927,0,66.7,11.31,0.00,0.00
15min,AgWx,beryljct,423,03MAR2019:12:45:00,53.5,13.99,49.7,49.5,49.6,50.2,48.9,69,71,66,0.844,39.8,41.1,38.7,17.54,17.1,204,8.9,22.1,0.00281,0.00353,.,37.0,25,652,0,61.7,11.31,0.00,0.00
15min,AgWx,beryljct,423,03MAR2019:13:00:00,53.5,14,51.0,50.2,49.9,50.6,49.0,68,72,64,0.838,39.7,41.9,38.7,16.9,16.9,201,11,20.8,0.00349,0.00426,.,37.1,25,846,0,63.6,11.31,0.00,0.00
15min,AgWx,beryljct,423,03MAR2019:13:15:00,53.8,13.96,50.1,49.8,50.3,51.5,49.8,66,69,63,0.797,39.4,41.5,38.0,15.94,15.8,204,12,21.4,0.00312,0.00389,.,37.2,25,705,0,61.5,11.31,0.00,0.00
15min,AgWx,beryljct,423,03MAR2019:13:30:00,53.5,14.02,50.0,49.2,49.6,50.2,49.2,66,69,65,0.773,38.9,40.1,37.9,14.36,16.1,215,11,19.4,0.00218,0.00289,.,37.3,25,417,0,57.6,11.31,0.00,0.00
15min,AgWx,beryljct,423,03MAR2019:13:45:00,53.1,13.97,49.3,49.7,49.4,50.2,48.9,66,69,65,0.801,38.6,40.2,37.6,14.8,15.7,216,9.7,20.3,0.00198,0.00267,.,37.3,25,353,0,56.8,11.31,0.00,0.00
15min,AgWx,beryljct,423,03MAR2019:14:00:00,52.9,13.97,49.0,49.2,49.4,49.9,48.9,66,69,64,0.800,38.7,40.0,37.9,17.21,15.7,217,9.8,20.1,0.00214,0.00283,.,37.4,25,416,0,57.9,11.31,0.00,0.00
15min,AgWx,beryljct,423,03MAR2019:14:15:00,52.7,14.03,50.3,49.7,49.3,49.9,49.0,66,69,64,0.805,38.6,39.8,37.6,11.99,14.8,214,12,20.5,0.00203,0.00270,.,37.5,25,384,0,57.5,11.30,0.00,0.00
15min,AgWx,beryljct,423,03MAR2019:14:30:00,52.7,14.01,49.6,49.4,49.8,50.1,49.4,64,67,62,0.753,38.3,39.6,36.9,15.13,14.6,205,10,18.7,0.00194,0.00264,.,37.6,25,338,0,57.6,11.30,0.00,0.00
15min,AgWx,beryljct,423,03MAR2019:14:45:00,52.6,13.99,50.4,50.0,49.9,50.3,49.3,62,64,61,0.757,37.6,38.2,36.9,14.53,15.3,209,11,19.8,0.00210,0.00286,.,37.7,25,386,0,57.3,11.30,0.00,0.00
15min,AgWx,beryljct,423,03MAR2019:15:00:00,53.0,14,49.8,49.2,50.1,50.9,49.2,63,65,61,0.742,37.9,39.2,36.8,13.28,15.8,209,8.4,19.1,0.00215,0.00292,.,37.8,25,410,0,58.6,11.30,0.00,0.00
15min,AgWx,beryljct,423,03MAR2019:15:15:00,52.7,13.98,51.2,50.1,49.4,50.1,49.0,64,67,61,0.783,37.7,39.2,36.4,14.91,15.0,197,13,18.9,0.00169,0.00239,.,37.9,25,275,0,55.1,11.30,0.00,0.00
15min,AgWx,beryljct,423,03MAR2019:15:30:00,52.9,13.99,51.0,50.2,50.3,50.9,50.1,60,64,59,0.760,37.2,38.8,36.2,14.14,16.8,205,13,21.3,0.00207,0.00291,.,38.0,25,385,0,56.9,11.30,0.00,0.00
15min,AgWx,beryljct,423,03MAR2019:15:45:00,52.9,14.01,50.2,50.1,49.9,50.7,49.4,63,65,61,0.755,37.7,38.7,36.8,14.78,13.8,197,9.6,19.5,0.00158,0.00227,.,38.1,25,262,0,56.1,11.30,0.00,0.00
15min,AgWx,beryljct,423,03MAR2019:16:00:00,53.1,13.96,51.2,51.3,50.5,51.5,49.6,61,63,59,0.757,37.4,39.1,36.3,13.59,14.3,203,11,19.3,0.00253,0.00332,.,38.2,25,520,0,57.4,11.30,0.01,0.00
15min,AgWx,beryljct,423,03MAR2019:16:15:00,53.8,13.98,50.1,50.0,50.4,51.5,50.0,62,64,59,0.773,37.9,39.0,36.9,14.36,13.4,197,13,18.0,0.00183,0.00255,.,38.3,25,340,0,57.1,11.30,0.00,0.00
15min,AgWx,beryljct,423,03MAR2019:16:30:00,53.5,13.97,50.6,50.0,49.7,50.3,49.5,63,66,61,0.767,37.6,39.3,36.8,14.73,13.6,199,9.0,17.3,0.00161,0.00230,.,38.4,25,300,0,55.5,11.30,0.00,0.00
15min,AgWx,beryljct,423,03MAR2019:16:45:00,53.2,13.98,49.2,49.2,49.6,50.2,49.2,64,67,62,0.766,37.9,38.9,37.0,13.77,13.8,200,12,18.5,0.00133,0.00198,.,38.5,25,230,0,54.7,11.30,0.00,0.00
15min,AgWx,beryljct,423,03MAR2019:17:00:00,52.3,13.46,48.9,48.8,48.7,49.2,48.5,66,68,64,0.779,37.8,38.5,37.2,16.18,13.7,210,10,19.8,0.00094,0.00152,.,38.6,25,145,0,52.4,11.30,0.00,0.00
15min,AgWx,beryljct,423,03MAR2019:17:15:00,51.8,14.01,49.3,49.0,49.2,49.7,48.7,65,67,63,0.764,37.8,38.4,37.1,16.88,14.1,204,9.1,19.1,0.00104,0.00166,.,38.7,25,161,0,52.1,11.30,0.00,0.00
15min,AgWx,beryljct,423,03MAR2019:17:30:00,52.0,14.01,50.3,49.7,49.5,49.8,48.9,64,65,62,0.777,37.7,38.5,37.1,12.08,15.7,205,8.1,20.5,0.00151,0.00222,.,38.8,25,269,0,53.3,11.30,0.00,0.00
15min,AgWx,beryljct,423,03MAR2019:17:45:00,52.4,13.98,48.9,48.9,49.3,49.8,48.9,65,66,63,0.767,37.9,38.4,37.3,15.3,13.4,191,9.8,18.3,0.00051,0.00058,.,38.8,25,220,0,53.4,11.30,0.00,0.00
15min,AgWx,beryljct,423,03MAR2019:18:00:00,52.3,13.97,48.7,48.4,48.6,48.8,48.4,65,66,64,0.754,37.4,37.8,36.9,13.88,12.8,188,8.4,17.5,0.00043,0.00049,.,38.9,25,153,0,51.4,11.30,0.00,0.00
15min,AgWx,beryljct,423,03MAR2019:18:15:00,51.6,13.24,47.4,47.4,47.9,48.5,47.4,67,70,65,0.780,37.5,38.3,37.0,9.03,11.0,193,8.1,15.6,0.00031,0.00037,.,39.0,25,82,0,49.6,11.30,0.00,0.00
15min,AgWx,beryljct,423,03MAR2019:18:30:00,50.5,13.15,46.9,46.7,47.0,47.4,46.7,71,72,70,0.780,38.0,38.5,37.7,9.58,10.3,184,6.2,15.7,0.00018,0.00023,.,39.0,25,21,0,47.9,11.30,0.00,0.00
15min,AgWx,beryljct,423,03MAR2019:18:45:00,49.3,13.11,46.5,46.2,46.4,46.7,46.1,71,72,70,0.760,37.7,38.2,37.4,10.41,11.6,182,5.9,14.7,0.00017,0.00021,.,39.1,26,3,0,46.6,11.30,0.00,0.00
15min,AgWx,beryljct,423,03MAR2019:19:00:00,48.4,13.08,45.8,45.7,45.8,46.3,45.6,73,73,71,0.761,37.6,37.9,37.2,6.292,8.5,184,7.5,12.9,0.00011,0.00014,.,39.2,25,0,0,46.2,11.30,0.00,0.00
15min,AgWx,beryljct,423,03MAR2019:19:15:00,47.8,13.08,46.2,45.7,45.6,45.9,45.5,72,73,71,0.743,37.2,37.5,36.8,6.445,7.0,177,8.1,10.5,0.00007,0.00011,.,39.3,25,0,0,46.3,11.30,0.00,0.00
15min,AgWx,beryljct,423,03MAR2019:19:30:00,47.2,13.06,38.5,39.1,43.7,45.8,39.1,76,85,71,0.687,36.5,37.7,34.9,8.44,8.2,100,52,15.7,0.00007,0.00010,.,39.3,25,0,0,44.6,11.30,0.00,0.00
15min,AgWx,beryljct,423,03MAR2019:19:45:00,45.3,13.04,37.7,37.4,38.1,39.1,37.4,87,88,85,0.669,34.5,35.1,34.2,17.58,16.0,59,8.4,21.2,0.00004,0.00005,.,39.4,25,0,0,39.3,11.31,0.01,0.00
15min,AgWx,beryljct,423,03MAR2019:20:00:00,43.4,13.05,37.0,36.8,37.1,37.4,36.8,90,91,88,0.672,34.4,34.5,34.2,13,13.5,53,16,19.5,0.00001,0.00002,.,39.4,25,0,0,38.5,11.31,0.00,0.00
15min,AgWx,beryljct,423,03MAR2019:20:15:00,42.0,13.04,35.8,35.5,36.3,36.8,35.5,91,92,91,0.644,34.0,34.4,33.3,11.64,13.9,49,9.8,19.3,-0.00000,0.00000,.,39.5,25,0,39,37.1,11.32,0.01,0.00
15min,AgWx,beryljct,423,03MAR2019:20:30:00,40.6,13.02,34.2,34.0,34.8,35.5,34.0,92,93,92,0.614,32.8,33.3,32.1,11.16,11.7,59,7.7,16.2,-0.00002,-0.00002,.,39.5,25,0,100,36.0,11.32,0.01,0.00
15min,AgWx,beryljct,423,03MAR2019:20:45:00,39.2,13,33.0,32.7,33.1,34.0,32.7,93,94,93,0.590,31.4,32.1,31.1,8.42,11.0,57,8.0,14.9,-0.00003,-0.00003,.,39.5,25,0,100,35.2,11.37,0.05,0.01
15min,AgWx,beryljct,423,03MAR2019:21:00:00,38.0,12.99,32.8,32.4,32.5,32.7,32.4,95,95,94,0.589,31.1,31.2,31.0,9.25,10.8,53,8.3,14.5,-0.00004,-0.00004,.,39.6,25,0,100,35.2,11.38,0.01,0.01
15min,AgWx,beryljct,423,03MAR2019:21:15:00,37.3,12.98,32.6,32.1,32.2,32.5,32.1,95,95,95,0.585,31.0,31.2,30.9,12.3,10.8,42,8.7,14.9,-0.00004,-0.00004,.,39.6,25,0,100,35.3,11.39,0.01,0.00
15min,AgWx,beryljct,423,03MAR2019:21:30:00,36.7,12.96,32.4,32.0,32.1,32.2,32.0,96,96,95,0.583,31.0,31.1,30.9,8.13,9.7,38,5.7,12.0,-0.00005,-0.00005,.,39.7,25,0,100,35.1,11.42,0.03,0.00
15min,AgWx,beryljct,423,03MAR2019:21:45:00,36.4,12.8,32.3,31.8,31.9,32.0,31.8,96,96,96,0.582,30.8,30.9,30.8,6.555,7.6,46,8.6,10.1,-0.00007,-0.00007,.,39.7,25,0,100,35.0,11.45,0.04,0.00
15min,AgWx,beryljct,423,03MAR2019:22:00:00,36.1,12.94,32.3,31.8,31.8,31.9,31.8,96,96,96,0.582,30.9,31.0,30.8,4.012,4.6,54,8.9,7.3,-0.00010,-0.00011,.,39.7,25,0,100,35.6,11.48,0.03,0.00
15min,AgWx,beryljct,423,03MAR2019:22:15:00,35.9,12.9,32.3,31.9,31.8,31.9,31.8,96,96,96,0.585,30.9,31.0,30.8,2.916,3.5,61,7.2,4.5,-0.00012,-0.00014,.,39.7,25,0,100,35.0,11.51,0.03,0.00
15min,AgWx,beryljct,423,03MAR2019:22:30:00,35.9,12.91,32.3,31.7,31.8,32.0,31.7,96,97,96,0.583,30.9,31.1,30.8,3.551,2.9,101,16,3.7,-0.00013,-0.00016,.,39.7,25,0,100,35.7,11.54,0.03,0.00
15min,AgWx,beryljct,423,03MAR2019:22:45:00,35.6,12.91,32.2,31.7,31.8,31.9,31.7,97,97,96,0.582,30.9,31.0,30.8,3.135,4.2,135,8.4,5.7,-0.00011,-0.00012,.,39.7,26,0,100,35.6,11.55,0.01,0.00
15min,AgWx,beryljct,423,03MAR2019:23:00:00,35.4,12.92,32.2,31.7,31.7,31.8,31.7,97,97,97,0.584,30.9,31.0,30.8,0,1.2,161,3.5,3.9,-0.00018,-0.00024,.,39.7,25,0,100,35.8,11.58,0.03,0.00
15min,AgWx,beryljct,423,03MAR2019:23:15:00,35.2,12.91,32.2,31.7,31.7,31.8,31.6,97,97,97,0.585,30.9,31.0,30.8,1.25,3.8,185,15,6.6,-0.00011,-0.00013,.,39.7,25,0,46,35.4,11.59,0.01,0.01
15min,AgWx,beryljct,423,03MAR2019:23:30:00,35.1,12.91,32.3,31.8,31.8,32.0,31.7,97,97,97,0.587,31.0,31.2,30.9,0,0.0,206,0.0,1.1,-0.00023,-0.00037,.,39.7,25,0,80,35.2,11.60,0.01,0.00
15min,AgWx,bigpiney,439,03MAR2019:00:00:00,15.6,12.72,11.2,10.8,10.9,11.1,10.7,83,84,83,0.207,6.8,7.2,6.5,0.965,1.5,37,22,2.4,-0.00008,-0.00010,30.6,30.9,9,0,0,0.0,0.10,0.00,0.00
15min,AgWx,bigpiney,439,03MAR2019:00:15:00,15.5,12.71,10.9,10.7,10.8,10.9,10.6,83,84,83,0.206,6.7,7.0,6.4,2.74,2.1,35,14,3.1,-0.00006,-0.00008,30.6,30.9,9,0,0,0.0,0.10,0.00,0.00
15min,AgWx,bigpiney,439,03MAR2019:00:30:00,15.3,12.68,10.7,10.4,10.6,10.8,10.4,83,84,83,0.205,6.5,6.8,6.3,2.916,2.5,52,8.4,3.3,-0.00005,-0.00006,30.6,30.9,9,0,0,0.0,0.10,0.00,0.00
15min,AgWx,bigpiney,439,03MAR2019:00:45:00,15.1,12.68,10.4,10.0,10.2,10.5,10.0,84,85,83,0.205,6.3,6.5,6.1,1.644,2.0,42,10,3.2,-0.00007,-0.00008,30.6,30.9,9,0,0,0.0,0.10,0.00,0.00
15min,AgWx,bigpiney,439,03MAR2019:01:00:00,14.8,12.67,8.9,8.8,9.7,10.0,8.8,85,86,85,0.192,6.2,6.5,5.1,0.723,1.4,25,33,2.3,-0.00008,-0.00010,30.6,30.9,9,0,0,0.0,0.10,0.00,0.00
15min,AgWx,bigpiney,439,03MAR2019:01:15:00,14.3,12.66,6.6,6.5,8.0,8.9,6.5,85,86,85,0.174,4.5,5.6,2.9,1.666,1.7,303,15,2.8,-0.00007,-0.00009,30.6,30.9,9,0,0,0.0,0.10,0.00,0.00
15min,AgWx,bigpiney,439,03MAR2019:01:30:00,13.6,12.66,5.6,5.6,6.2,6.6,5.6,86,87,85,0.170,2.9,3.4,2.4,2.126,2.4,308,5.6,2.9,-0.00005,-0.00006,30.6,30.8,9,0,0,0.0,0.10,0.00,0.00
15min,AgWx,bigpiney,439,03MAR2019:01:45:00,12.6,12.64,4.5,4.1,4.8,5.6,4.1,87,87,86,0.160,1.7,2.4,1.2,1.206,1.6,308,3.4,2.3,-0.00006,-0.00008,30.6,30.9,9,0,0,0.0,0.10,0.00,0.00
15min,AgWx,bigpiney,439,03MAR2019:02:00:00,11.6,12.63,2.1,2.9,3.9,4.3,2.7,88,89,86,0.150,1.1,1.6,-0.6,1.228,2.1,297,38,3.0,-0.00005,-0.00006,30.7,30.8,9,0,0,0.0,0.10,0.00,0.00
15min,AgWx,bigpiney,439,03MAR2019:02:15:00,10.5,12.63,2.3,1.4,1.5,2.8,1.1,85,87,85,0.139,-1.8,-0.3,-2.3,1.688,1.7,208,5.6,2.9,-0.00005,-0.00007,30.7,30.9,9,0,0,0.0,0.10,0.00,0.00
15min,AgWx,bigpiney,439,03MAR2019:02:30:00,9.6,12.62,4.1,3.0,2.2,3.0,1.5,86,87,86,0.152,-0.9,-0.0,-1.8,1.513,2.8,227,14,3.8,-0.00004,-0.00004,30.7,30.9,9,0,0,0.0,0.10,0.00,0.00
15min,AgWx,bigpiney,439,03MAR2019:02:45:00,9.1,12.6,4.4,3.8,3.5,3.9,3.1,87,87,86,0.157,0.4,0.8,0.0,0.438,1.2,254,18,2.1,-0.00007,-0.00009,30.7,30.9,9,0,0,0.0,0.10,0.00,0.00
15min,AgWx,bigpiney,439,03MAR2019:03:00:00,8.7,12.59,2.1,1.7,2.6,3.9,1.6,86,87,85,0.141,-0.7,0.8,-1.6,0.833,0.8,358,24,1.6,-0.00008,-0.00011,30.7,30.9,9,0,0,0.0,0.10,0.00,0.00
15min,AgWx,bigpiney,439,03MAR2019:03:15:00,8.1,12.58,-1.0,-1.3,0.4,1.6,-1.3,85,86,83,0.119,-3.0,-1.5,-5.1,2.631,1.6,0.9,90,3.8,-0.00005,-0.00007,30.7,30.8,9,0,0,0.0,0.10,0.00,0.00
15min,AgWx,bigpiney,439,03MAR2019:03:30:00,7.3,12.56,-0.6,-0.7,-1.0,-0.7,-1.3,84,84,83,0.122,-4.8,-4.4,-5.2,5.283,4.0,210,7.1,5.9,-0.00002,-0.00002,30.7,30.8,9,0,1,0.0,0.10,0.00,0.00
15min,AgWx,bigpiney,439,03MAR2019:03:45:00,6.7,12.57,2.0,1.2,-0.4,1.2,-1.3,84,86,82,0.138,-4.0,-2.0,-5.4,2.521,4.0,228,10,5.9,-0.00002,-0.00002,30.7,30.9,9,0,1,0.0,0.10,0.00,0.00
15min,AgWx,bigpiney,439,03MAR2019:04:00:00,6.4,12.55,-2.1,-1.2,1.4,2.2,-1.2,84,86,81,0.115,-2.2,-1.3,-5.8,2.85,1.6,277,37,3.1,-0.00005,-0.00007,30.7,30.8,9,0,1,0.0,0.10,0.00,0.00
15min,AgWx,bigpiney,439,03MAR2019:04:15:00,6.0,12.56,-1.9,-2.8,-2.8,-1.4,-3.2,83,85,80,0.112,-6.8,-6.0,-7.3,2.389,2.7,337,6.6,3.2,-0.00003,-0.00003,30.7,30.8,9,0,1,0.0,0.10,0.00,0.00
15min,AgWx,bigpiney,439,03MAR2019:04:30:00,5.3,12.55,-0.3,-2.3,-2.6,-2.1,-3.5,85,86,84,0.116,-6.1,-5.4,-7.2,0.482,1.4,324,51,2.9,-0.00005,-0.00006,30.7,30.9,9,0,1,0.0,0.10,0.00,0.00
15min,AgWx,bigpiney,439,03MAR2019:04:45:00,4.2,12.54,-5.8,-6.0,-4.2,-1.9,-6.0,84,87,81,0.093,-7.9,-5.0,-10.2,2.828,2.7,202,6.9,4.3,-0.00003,-0.00003,30.7,30.8,9,0,1,0.0,0.10,0.00,0.00
15min,AgWx,bigpiney,439,03MAR2019:05:00:00,3.0,12.54,-5.4,-6.0,-6.0,-5.7,-6.2,83,84,82,0.095,-9.9,-9.4,-10.4,1.885,2.5,229,6.7,3.0,-0.00003,-0.00003,30.7,30.9,9,0,1,0.0,0.10,0.00,0.00
15min,AgWx,bigpiney,439,03MAR2019:05:15:00,1.9,12.51,-8.8,-9.3,-7.2,-5.9,-9.3,82,84,80,0.079,-11.2,-9.6,-13.6,3.003,2.8,214,11,4.6,-0.00002,-0.00003,30.7,30.9,9,0,1,0.0,0.10,0.00,0.00
15min,AgWx,bigpiney,439,03MAR2019:05:30:00,0.9,12.51,-5.0,-6.4,-8.1,-6.4,-9.3,83,85,81,0.095,-11.9,-9.8,-13.5,1.907,2.7,219,6.8,4.0,-0.00002,-0.00002,30.7,30.8,9,0,1,0.0,0.10,0.00,0.00
15min,AgWx,bigpiney,439,03MAR2019:05:45:00,0.3,12.49,-0.7,-1.8,-4.2,-1.8,-6.3,85,86,85,0.120,-7.5,-5.0,-9.7,0,0.9,229,4.9,2.0,-0.00006,-0.00007,30.7,30.8,9,0,1,0.0,0.10,0.00,0.00
15min,AgWx,bigpiney,439,03MAR2019:06:00:00,0.6,12.49,-0.7,-1.6,-1.2,-0.6,-1.9,85,86,83,0.118,-4.6,-3.7,-5.6,0,0.1,190,1.3,0.9,-0.00009,-0.00014,30.7,30.8,9,0,1,0.0,0.10,0.00,0.00
15min,AgWx,bigpiney,439,03MAR2019:06:15:00,1.1,12.49,-2.8,-3.2,-2.2,-1.3,-3.2,83,85,82,0.108,-6.0,-4.8,-7.4,1.469,0.7,214,22,2.1,-0.00006,-0.00009,30.7,30.8,9,0,1,0.0,0.10,0.00,0.00
15min,AgWx,bigpiney,439,03MAR2019:06:30:00,1.5,12.49,-2.3,-2.9,-2.9,-2.5,-3.2,84,84,83,0.110,-6.6,-6.2,-7.2,0.921,1.1,236,10,2.2,-0.00005,-0.00007,30.7,30.9,9,0,1,0.0,0.10,0.00,0.00
15min,AgWx,bigpiney,439,03MAR2019:06:45:00,1.7,12.5,-1.8,-2.2,-2.7,-2.2,-3.1,84,84,83,0.114,-6.5,-5.9,-7.1,1.337,0.9,216,9.1,1.8,-0.00006,-0.00008,30.7,30.8,9,1,1,0.0,0.10,0.00,0.00
15min,AgWx,bigpiney,439,03MAR2019:07:00:00,1.9,12.51,-1.7,-2.2,-2.4,-2.2,-2.5,83,84,83,0.114,-6.2,-6.0,-6.4,2.039,1.4,212,6.1,2.0,-0.00005,-0.00006,30.7,30.8,9,5,1,0.0,0.10,0.00,0.00
15min,AgWx,bigpiney,439,03MAR2019:07:15:00,2.1,12.65,-1.0,-1.6,-1.8,-1.5,-2.2,84,84,84,0.117,-5.6,-5.3,-6.0,0,1.2,237,13,2.1,-0.00010,-0.00010,30.7,30.8,9,21,1,0.0,0.10,0.00,0.00
15min,AgWx,bigpiney,439,03MAR2019:07:30:00,2.3,13.09,-0.7,-1.4,-1.7,-1.4,-1.8,83,84,83,0.118,-5.5,-5.2,-5.8,0.044,0.8,221,14,2.0,-0.00005,-0.00005,30.7,30.8,9,58,1,0.0,0.10,0.00,0.00
15min,AgWx,bigpiney,439,03MAR2019:07:45:00,2.6,13.46,-0.9,-1.4,-1.2,-1.1,-1.5,83,84,83,0.118,-5.1,-4.8,-5.3,0,0.1,307,9.3,0.7,-0.00000,-0.00000,30.6,30.8,9,67,1,0.0,0.10,0.00,0.00
15min,AgWx,bigpiney,439,03MAR2019:08:00:00,3.1,14.97,-0.7,-0.8,-1.1,-0.7,-1.5,84,84,83,0.123,-4.9,-4.3,-5.4,1.469,0.4,329,18,1.5,0.00012,0.00013,30.6,30.8,9,153,1,0.0,0.10,0.00,0.00
15min,AgWx,bigpiney,439,03MAR2019:08:15:00,4.2,15.06,-0.5,-1.0,-1.0,-0.8,-1.1,84,84,84,0.121,-4.7,-4.5,-4.9,2.258,1.6,357,4.0,2.7,0.00020,0.00023,30.6,30.9,9,203,1,0.0,0.10,0.00,0.00